Vertical_Velocity
11 9 12 9 16 6 10 -5 1 -9 -4 0 -2 1 1 -4 3 1 -1 2 -0 -5 3 -0 -4 0 -0 0 -0 -2 -0 -2
9 11 11 30 30 -2 8 -4 -15 -10 -1 3 1 4 2 -1 -3 1 -3 4 -1 3 4 -1 1 1 0 -6 -4 -1 -0 -2
23 29 2 16 21 10 -8 -5 -4 -1 -0 1 2 3 1 1 1 3 -2 3 -2 -0 -2 2 -4 -1 -0 2 -2 -1 -4 1
-1 -14 -9 -35 -2 3 -27 -9 -3 -0 -1 3 0 1 -0 -5 2 1 2 5 -2 5 0 1 -0 0 -1 -2 2 2 -5 -1
0 11 11 3 9 -10 -7 -1 5 6 4 -2 4 5 1 4 -0 4 -0 2 0 3 -1 1 1 0 -1 0 -1 1 -4 -2
32 35 28 9 -22 -1 -7 -7 4 3 0 1 1 4 3 -3 -3 -7 2 6 -2 2 -1 1 0 -2 2 -0 -2 -4 -4 -2
-3 4 -24 -13 -5 -9 -8 4 -4 2 2 0 2 1 -3 4 0 4 3 6 -1 1 -2 -1 1 -2 -1 -1 -2 -2 -2 1
5 1 -14 -6 -4 3 1 -1 2 -2 -2 7 2 -0 0 4 5 3 0 -1 -4 -0 -2 0 -1 -2 -3 -3 -2 0 -2 -2
3 7 -3 -6 4 -5 -0 -3 -4 -3 1 6 1 8 7 1 0 -1 5 -1 -3 -3 -5 2 -2 -1 -1 -3 -4 -4 -3 -1
-5 3 -3 3 6 -2 -3 -4 -0 6 -1 2 1 2 4 -2 -3 -0 -2 1 -2 -1 -2 -4 -1 -2 -1 -1 -3 -1 -0 -0
5 3 3 2 2 -1 -3 4 2 -1 2 5 3 5 3 -2 -1 -4 -1 1 -5 -1 -0 2 0 -1 1 -4 -1 0 1 -1
-0 1 0 -1 -6 -0 1 5 -4 0 3 11 -2 -1 -1 -0 -2 0 -0 -1 -4 1 3 -1 -2 -1 -1 1 -2 -1 -1 -3
-2 -1 -1 -1 -3 3 0 2 5 8 3 5 1 0 -2 -1 -2 -3 -0 1 -1 0 -2 2 -0 -1 -2 -2 -2 -2 -2 -2
-1 -0 0 8 2 3 -0 -1 3 3 5 -2 -2 1 -2 -6 0 -1 1 2 -1 -1 -0 -1 -1 -1 -4 0 -3 -5 1 -2
4 2 3 -0 0 0 -2 1 -4 4 4 -1 0 -4 -3 -2 0 -1 3 -1 1 1 -0 -0 -3 -1 -2 0 -8 -5 -5 -1
-0 -1 2 3 -1 -2 -1 5 2 9 1 -1 -2 -3 -2 -1 -1 -1 1 1 -1 -1 -4 -2 -0 -2 -4 -3 -3 -3 -4 -2
5 4 1 3 3 4 -1 0 5 12 1 0 -0 -1 -0 -2 -1 2 0 -1 -1 -1 -2 -0 -4 -1 -2 -4 -2 -3 -2 -4
2 2 5 0 2 8 4 1 -0 9 2 1 -0 0 -2 -0 -0 1 -1 -1 -1 1 1 -4 -5 -3 -2 -2 -2 -3 -2 -3
2 2 1 2 1 5 0 5 5 5 2 1 0 0 3 3 0 2 0 -3 11 7 -2 -2 -4 -3 -1 -1 -2 -2 -2 -2
3 3 4 9 -7 -0 4 2 2 2 -1 1 1 -1 -0 2 3 -3 14 6 -7 -1 0 -3 -4 -1 -1 -2 -2 -1 -0 1
Height
3143 3146 3150 3150 3152 3155 3159 3163 3168 3173 3176 3178 3179 3181 3183 3185 3186 3187 3188 3188 3190 3190 3188 3188 3189 3188 3187 3187 3186 3184 3184 3182
3140 3141 3142 3143 3142 3146 3155 3162 3168 3171 3176 3178 3179 3182 3183 3184 3185 3185 3187 3188 3188 3187 3188 3188 3188 3187 3187 3185 3185 3184 3182 3180
3134 3134 3137 3130 3134 3138 3149 3160 3165 3169 3175 3177 3179 3182 3184 3186 3186 3186 3185 3186 3187 3187 3187 3187 3186 3186 3185 3184 3182 3181 3180 3179
3137 3134 3129 3138 3134 3140 3149 3160 3163 3170 3173 3177 3180 3181 3184 3185 3186 3187 3187 3185 3186 3186 3186 3185 3184 3183 3182 3182 3180 3178 3177 3176
3133 3131 3135 3139 3142 3147 3153 3159 3165 3170 3173 3176 3179 3180 3182 3184 3185 3186 3186 3185 3185 3185 3183 3183 3181 3181 3179 3178 3178 3175 3174 3171
3120 3123 3130 3135 3137 3145 3152 3158 3164 3170 3173 3176 3177 3179 3180 3182 3184 3183 3185 3184 3183 3183 3181 3180 3178 3177 3176 3175 3173 3172 3171 3167
3123 3126 3132 3139 3145 3149 3152 3158 3164 3169 3171 3174 3176 3177 3179 3180 3180 3181 3182 3180 3180 3180 3179 3177 3174 3173 3172 3171 3169 3167 3166 3164
3125 3131 3134 3139 3144 3149 3155 3160 3164 3167 3170 3172 3173 3175 3177 3178 3179 3178 3178 3176 3176 3176 3175 3174 3171 3169 3168 3167 3166 3164 3163 3161
3132 3134 3138 3140 3145 3150 3154 3160 3163 3165 3168 3170 3172 3173 3174 3175 3176 3175 3173 3172 3171 3171 3171 3169 3167 3165 3163 3162 3161 3160 3158 3156
3134 3138 3141 3144 3148 3152 3156 3160 3162 3163 3166 3168 3170 3171 3172 3172 3172 3171 3170 3168 3168 3166 3167 3165 3163 3162 3159 3157 3156 3154 3152 3150
3137 3141 3143 3146 3149 3153 3156 3158 3161 3163 3164 3167 3168 3169 3169 3168 3167 3167 3166 3165 3164 3163 3163 3161 3159 3157 3155 3152 3151 3149 3146 3144
3140 3142 3145 3148 3149 3152 3155 3158 3159 3161 3163 3164 3165 3165 3165 3164 3164 3164 3162 3162 3161 3160 3159 3157 3155 3153 3150 3148 3146 3143 3140 3137
3141 3143 3146 3148 3150 3153 3155 3156 3157 3159 3160 3162 3161 3161 3161 3161 3160 3160 3160 3158 3157 3157 3155 3153 3151 3148 3146 3143 3140 3138 3134 3130
3141 3143 3145 3147 3149 3151 3152 3154 3155 3157 3158 3157 3157 3158 3158 3158 3158 3158 3157 3155 3154 3152 3150 3148 3145 3143 3140 3136 3132 3130 3126 3123
3141 3143 3145 3146 3148 3149 3151 3152 3152 3154 3154 3154 3154 3155 3155 3155 3155 3154 3153 3151 3149 3146 3143 3143 3139 3136 3133 3130 3124 3122 3117 3114
3139 3141 3143 3144 3146 3146 3147 3148 3149 3150 3150 3150 3151 3151 3151 3151 3150 3149 3148 3146 3143 3140 3138 3136 3133 3129 3125 3123 3119 3115 3109 3103
3136 3137 3139 3140 3142 3142 3143 3144 3144 3145 3146 3146 3146 3146 3147 3146 3145 3144 3142 3139 3136 3133 3131 3129 3125 3122 3118 3114 3110 3106 3102 3096
3132 3134 3135 3136 3137 3138 3139 3139 3140 3140 3141 3142 3141 3142 3142 3141 3140 3138 3135 3132 3128 3126 3124 3120 3117 3113 3110 3106 3101 3096 3092 3088
3128 3130 3132 3132 3132 3134 3134 3134 3134 3135 3137 3137 3137 3138 3137 3135 3133 3131 3128 3126 3121 3120 3117 3113 3109 3105 3100 3096 3092 3087 3084 3080
3123 3125 3127 3129 3128 3127 3127 3128 3129 3130 3132 3133 3133 3133 3131 3129 3127 3124 3121 3117 3115 3112 3108 3104 3100 3094 3091 3087 3084 3079 3076 3071